Time,TemperatureF,DewpointF,PressureIn,WindDirection,WindDirectionDegrees,WindSpeedMPH,WindSpeedGustMPH,Humidity,HourlyPrecipIn,Conditions,Clouds,dailyrainin,SoftwareType,DateUTC
2012-10-05 00:01:00,52.6,39.9,30.24,East,90,2.5,4.3,62,0.00,,,0.00,WUHU216HW,2012-10-05 07:01:00,
2012-10-05 00:06:00,52.6,39.9,30.24,NNE,23,2.9,4.0,62,0.00,,,0.00,WUHU216HW,2012-10-05 07:06:00,
2012-10-05 00:11:00,52.6,39.9,30.24,NW,315,0.7,4.0,62,0.00,,,0.00,WUHU216HW,2012-10-05 07:11:00,
2012-10-05 00:16:00,52.6,39.9,30.23,ENE,68,1.8,4.0,62,0.00,,,0.00,WUHU216HW,2012-10-05 07:16:00,
2012-10-05 00:21:00,52.4,39.7,30.24,ENE,68,3.8,4.7,62,0.00,,,0.00,WUHU216HW,2012-10-05 07:21:00,
2012-10-05 00:26:00,52.4,39.7,30.23,ENE,68,0.9,7.6,62,0.00,,,0.00,WUHU216HW,2012-10-05 07:26:00,
2012-10-05 00:31:00,52.4,39.7,30.24,NW,315,1.1,7.6,62,0.00,,,0.00,WUHU216HW,2012-10-05 07:31:00,
2012-10-05 00:36:00,52.4,39.7,30.24,NE,45,1.6,6.3,62,0.00,,,0.00,WUHU216HW,2012-10-05 07:36:00,
2012-10-05 00:41:00,52.4,39.7,30.23,NNW,338,1.6,4.9,62,0.00,,,0.00,WUHU216HW,2012-10-05 07:41:00,
2012-10-05 00:46:00,52.4,39.7,30.23,ESE,113,1.3,4.9,62,0.00,,,0.00,WUHU216HW,2012-10-05 07:46:00,
2012-10-05 00:51:00,52.4,39.7,30.23,NE,45,2.7,4.9,62,0.00,,,0.00,WUHU216HW,2012-10-05 07:51:00,
2012-10-05 00:56:00,52.4,39.7,30.23,WNW,293,3.1,4.9,62,0.00,,,0.00,WUHU216HW,2012-10-05 07:56:00,
2012-10-05 01:01:00,52.4,39.7,30.23,WNW,293,1.6,4.3,62,0.00,,,0.00,WUHU216HW,2012-10-05 08:01:00,
2012-10-05 01:06:00,52.2,39.5,30.23,North,0,1.1,4.3,62,0.00,,,0.00,WUHU216HW,2012-10-05 08:06:00,
2012-10-05 01:11:00,52.2,39.5,30.23,NW,315,2.2,4.3,62,0.00,,,0.00,WUHU216HW,2012-10-05 08:11:00,
2012-10-05 01:16:00,52.2,39.5,30.23,NNW,338,0.7,4.0,62,0.00,,,0.00,WUHU216HW,2012-10-05 08:16:00,
2012-10-05 01:21:00,52.4,39.7,30.23,NNE,23,1.1,4.0,62,0.00,,,0.00,WUHU216HW,2012-10-05 08:21:00,
2012-10-05 01:26:00,52.2,39.5,30.23,NNW,338,4.7,4.7,62,0.00,,,0.00,WUHU216HW,2012-10-05 08:26:00,
2012-10-05 01:31:00,52.2,39.5,30.23,North,0,1.8,4.7,62,0.00,,,0.00,WUHU216HW,2012-10-05 08:31:00,
2012-10-05 01:36:00,52.2,39.5,30.23,North,0,1.1,4.7,62,0.00,,,0.00,WUHU216HW,2012-10-05 08:36:00,
2012-10-05 01:41:00,52.2,39.5,30.24,NNE,23,2.5,5.4,62,0.00,,,0.00,WUHU216HW,2012-10-05 08:41:00,
2012-10-05 01:46:00,52.2,39.5,30.24,North,0,2.5,5.4,62,0.00,,,0.00,WUHU216HW,2012-10-05 08:46:00,
2012-10-05 01:51:00,52.0,39.3,30.24,NNW,338,6.3,6.3,62,0.00,,,0.00,WUHU216HW,2012-10-05 08:51:00,
2012-10-05 01:56:00,52.0,39.8,30.24,SE,135,1.1,6.3,63,0.00,,,0.00,WUHU216HW,2012-10-05 08:56:00,
2012-10-05 02:01:00,52.0,39.8,30.24,NE,45,2.5,6.3,63,0.00,,,0.00,WUHU216HW,2012-10-05 09:01:00,
2012-10-05 02:06:00,51.8,40.0,30.24,North,0,2.2,5.8,64,0.00,,,0.00,WUHU216HW,2012-10-05 09:06:00,
2012-10-05 02:11:00,51.8,40.0,30.24,West,270,2.2,5.8,64,0.00,,,0.00,WUHU216HW,2012-10-05 09:11:00,
2012-10-05 02:16:00,51.7,39.9,30.24,North,0,1.8,4.9,64,0.00,,,0.00,WUHU216HW,2012-10-05 09:16:00,
2012-10-05 02:21:00,51.7,39.9,30.24,NNE,23,2.7,4.9,64,0.00,,,0.00,WUHU216HW,2012-10-05 09:21:00,
2012-10-05 02:26:00,51.5,39.7,30.24,East,90,1.3,4.5,64,0.00,,,0.00,WUHU216HW,2012-10-05 09:26:00,
2012-10-05 02:31:00,51.5,39.7,30.24,NNE,23,1.1,4.5,64,0.00,,,0.00,WUHU216HW,2012-10-05 09:31:00,
2012-10-05 02:36:00,51.5,39.7,30.23,NNE,23,0.9,4.3,64,0.00,,,0.00,WUHU216HW,2012-10-05 09:36:00,
2012-10-05 02:41:00,51.5,39.7,30.24,WNW,293,1.6,3.8,64,0.00,,,0.00,WUHU216HW,2012-10-05 09:41:00,
2012-10-05 02:46:00,51.5,39.7,30.24,NW,315,4.7,6.3,64,0.00,,,0.00,WUHU216HW,2012-10-05 09:46:00,
2012-10-05 02:51:00,51.5,39.7,30.23,North,0,1.8,6.3,64,0.00,,,0.00,WUHU216HW,2012-10-05 09:51:00,
2012-10-05 02:56:00,51.3,39.5,30.23,ESE,113,0.9,4.9,64,0.00,,,0.00,WUHU216HW,2012-10-05 09:56:00,
2012-10-05 03:01:00,51.1,39.3,30.23,NNW,338,1.3,4.9,64,0.00,,,0.00,WUHU216HW,2012-10-05 10:01:00,
2012-10-05 03:06:00,51.1,39.3,30.23,NE,45,1.3,4.7,64,0.00,,,0.00,WUHU216HW,2012-10-05 10:06:00,
2012-10-05 03:11:00,50.9,40.0,30.23,NE,45,4.0,6.0,66,0.00,,,0.00,WUHU216HW,2012-10-05 10:11:00,
2012-10-05 03:16:00,50.9,40.0,30.23,NNE,23,2.9,6.0,66,0.00,,,0.00,WUHU216HW,2012-10-05 10:16:00,
2012-10-05 03:21:00,50.9,40.0,30.23,NNW,338,2.0,6.3,66,0.00,,,0.00,WUHU216HW,2012-10-05 10:21:00,
2012-10-05 03:26:00,50.8,40.2,30.23,West,270,1.3,6.3,67,0.00,,,0.00,WUHU216HW,2012-10-05 10:26:00,
2012-10-05 03:31:00,50.8,40.2,30.23,South,180,0.4,4.7,67,0.00,,,0.00,WUHU216HW,2012-10-05 10:31:00,
2012-10-05 03:36:00,50.8,40.6,30.23,West,270,1.8,5.1,68,0.00,,,0.00,WUHU216HW,2012-10-05 10:36:00,
2012-10-05 03:41:00,50.8,40.6,30.23,NNE,23,2.0,5.1,68,0.00,,,0.00,WUHU216HW,2012-10-05 10:41:00,
2012-10-05 03:46:00,50.8,40.2,30.23,WNW,293,3.8,5.1,67,0.00,,,0.00,WUHU216HW,2012-10-05 10:46:00,
2012-10-05 03:51:00,50.8,40.6,30.23,NNW,338,1.8,5.6,68,0.00,,,0.00,WUHU216HW,2012-10-05 10:51:00,
2012-10-05 03:56:00,50.8,40.2,30.23,North,0,0.9,6.7,67,0.00,,,0.00,WUHU216HW,2012-10-05 10:56:00,
2012-10-05 04:01:00,50.8,40.2,30.23,NE,45,1.8,6.7,67,0.00,,,0.00,WUHU216HW,2012-10-05 11:01:00,
2012-10-05 04:06:00,50.8,40.6,30.22,NE,45,0.7,5.8,68,0.00,,,0.00,WUHU216HW,2012-10-05 11:06:00,
2012-10-05 04:11:00,50.8,40.2,30.23,SE,135,1.1,5.8,67,0.00,,,0.00,WUHU216HW,2012-10-05 11:11:00,
2012-10-05 04:16:00,50.8,40.2,30.23,SE,135,1.8,5.4,67,0.00,,,0.00,WUHU216HW,2012-10-05 11:16:00,
2012-10-05 04:21:00,50.6,40.1,30.23,North,0,2.5,3.6,67,0.00,,,0.00,WUHU216HW,2012-10-05 11:21:00,
2012-10-05 04:26:00,50.6,40.4,30.23,East,90,4.5,6.3,68,0.00,,,0.00,WUHU216HW,2012-10-05 11:26:00,
2012-10-05 04:31:00,50.6,40.4,30.22,NNE,23,3.4,6.3,68,0.00,,,0.00,WUHU216HW,2012-10-05 11:31:00,
2012-10-05 04:36:00,50.6,40.4,30.22,NE,45,3.8,6.3,68,0.00,,,0.00,WUHU216HW,2012-10-05 11:36:00,
2012-10-05 04:41:00,50.6,40.4,30.22,ESE,113,4.0,6.3,68,0.00,,,0.00,WUHU216HW,2012-10-05 11:41:00,
2012-10-05 04:46:00,50.6,40.4,30.23,NNE,23,5.6,7.6,68,0.00,,,0.00,WUHU216HW,2012-10-05 11:46:00,
2012-10-05 04:51:00,50.4,40.2,30.23,ENE,68,1.8,7.6,68,0.00,,,0.00,WUHU216HW,2012-10-05 11:51:00,
2012-10-05 04:56:00,50.4,40.7,30.22,NE,45,3.6,5.6,69,0.00,,,0.00,WUHU216HW,2012-10-05 11:56:00,
2012-10-05 05:01:00,50.4,40.7,30.23,NE,45,2.0,7.2,69,0.00,,,0.00,WUHU216HW,2012-10-05 12:01:00,
2012-10-05 05:06:00,50.2,40.5,30.23,NNE,23,2.5,7.2,69,0.00,,,0.00,WUHU216HW,2012-10-05 12:06:00,
2012-10-05 05:11:00,50.2,40.9,30.23,ESE,113,0.4,6.3,70,0.00,,,0.00,WUHU216HW,2012-10-05 12:11:00,
2012-10-05 05:16:00,50.2,40.9,30.23,NNE,23,1.8,6.3,70,0.00,,,0.00,WUHU216HW,2012-10-05 12:16:00,
2012-10-05 05:21:00,50.0,40.7,30.23,NNE,23,2.9,4.9,70,0.00,,,0.00,WUHU216HW,2012-10-05 12:21:00,
2012-10-05 05:26:00,50.0,40.7,30.23,North,0,2.7,4.7,70,0.00,,,0.00,WUHU216HW,2012-10-05 12:26:00,
2012-10-05 05:31:00,50.0,40.7,30.22,NE,45,1.8,4.7,70,0.00,,,0.00,WUHU216HW,2012-10-05 12:31:00,
2012-10-05 05:36:00,50.0,40.3,30.23,NE,45,0.2,2.7,69,0.00,,,0.00,WUHU216HW,2012-10-05 12:36:00,
2012-10-05 05:41:00,50.0,40.3,30.23,NNE,23,2.0,3.1,69,0.00,,,0.00,WUHU216HW,2012-10-05 12:41:00,
2012-10-05 05:46:00,50.0,40.3,30.23,NNE,23,1.6,4.0,69,0.00,,,0.00,WUHU216HW,2012-10-05 12:46:00,
2012-10-05 05:51:00,50.0,40.3,30.23,NNE,23,2.2,4.7,69,0.00,,,0.00,WUHU216HW,2012-10-05 12:51:00,
2012-10-05 05:56:00,49.9,40.2,30.23,NNE,23,3.4,4.7,69,0.00,,,0.00,WUHU216HW,2012-10-05 12:56:00,
2012-10-05 06:01:00,49.9,40.2,30.23,ESE,113,0.4,3.4,69,0.00,,,0.00,WUHU216HW,2012-10-05 13:01:00,
2012-10-05 06:06:00,49.7,40.0,30.23,North,0,0.4,3.4,69,0.00,,,0.00,WUHU216HW,2012-10-05 13:06:00,
2012-10-05 06:11:00,49.7,40.3,30.23,ENE,68,2.2,7.6,70,0.00,,,0.00,WUHU216HW,2012-10-05 13:11:00,
2012-10-05 06:16:00,49.5,39.8,30.23,ESE,113,1.1,7.6,69,0.00,,,0.00,WUHU216HW,2012-10-05 13:16:00,
2012-10-05 06:21:00,49.5,39.8,30.23,NNW,338,2.5,2.5,69,0.00,,,0.00,WUHU216HW,2012-10-05 13:21:00,
2012-10-05 06:26:00,49.3,39.6,30.23,South,180,1.1,2.5,69,0.00,,,0.00,WUHU216HW,2012-10-05 13:26:00,
2012-10-05 06:31:00,49.3,40.0,30.23,North,0,3.4,3.8,70,0.00,,,0.00,WUHU216HW,2012-10-05 13:31:00,
2012-10-05 06:36:00,49.3,40.0,30.23,NW,315,2.9,3.8,70,0.00,,,0.00,WUHU216HW,2012-10-05 13:36:00,
2012-10-05 06:41:00,49.3,40.0,30.23,NNW,338,1.3,3.6,70,0.00,,,0.00,WUHU216HW,2012-10-05 13:41:00,
2012-10-05 06:46:00,49.1,39.8,30.23,North,0,1.1,5.4,70,0.00,,,0.00,WUHU216HW,2012-10-05 13:46:00,
2012-10-05 06:51:00,49.0,39.6,30.23,NNW,338,0.2,5.4,70,0.00,,,0.00,WUHU216HW,2012-10-05 13:51:00,
2012-10-05 06:56:00,49.0,39.6,30.23,ENE,68,1.3,5.1,70,0.00,,,0.00,WUHU216HW,2012-10-05 13:56:00,
2012-10-05 07:01:00,49.0,39.6,30.24,East,90,2.2,5.1,70,0.00,,,0.00,WUHU216HW,2012-10-05 14:01:00,
2012-10-05 07:06:00,49.0,39.6,30.24,NE,45,3.1,3.6,70,0.00,,,0.00,WUHU216HW,2012-10-05 14:06:00,
2012-10-05 07:11:00,49.1,39.8,30.24,NW,315,2.9,5.4,70,0.00,,,0.00,WUHU216HW,2012-10-05 14:11:00,
2012-10-05 07:16:00,49.1,40.2,30.25,ENE,68,1.1,5.4,71,0.00,,,0.00,WUHU216HW,2012-10-05 14:16:00,
2012-10-05 07:21:00,49.1,40.2,30.25,NNW,338,3.1,5.1,71,0.00,,,0.00,WUHU216HW,2012-10-05 14:21:00,
2012-10-05 07:26:00,49.3,40.3,30.25,North,0,6.3,6.3,71,0.00,,,0.00,WUHU216HW,2012-10-05 14:26:00,
2012-10-05 07:31:00,49.3,40.0,30.25,ENE,68,2.5,6.3,70,0.00,,,0.00,WUHU216HW,2012-10-05 14:31:00,
2012-10-05 07:36:00,49.3,40.0,30.25,West,270,2.7,6.3,70,0.00,,,0.00,WUHU216HW,2012-10-05 14:36:00,
2012-10-05 07:41:00,49.3,40.0,30.25,NNE,23,3.4,5.1,70,0.00,,,0.00,WUHU216HW,2012-10-05 14:41:00,
2012-10-05 07:46:00,49.3,40.0,30.25,NNW,338,0.9,4.5,70,0.00,,,0.00,WUHU216HW,2012-10-05 14:46:00,
2012-10-05 07:51:00,49.3,40.0,30.25,ESE,113,2.0,6.0,70,0.00,,,0.00,WUHU216HW,2012-10-05 14:51:00,
2012-10-05 07:56:00,49.5,40.1,30.25,North,0,1.3,8.5,70,0.00,,,0.00,WUHU216HW,2012-10-05 14:56:00,
2012-10-05 08:01:00,50.0,40.7,30.25,North,0,1.1,8.5,70,0.00,,,0.00,WUHU216HW,2012-10-05 15:01:00,
2012-10-05 08:06:00,50.4,41.0,30.25,NE,45,1.1,4.7,70,0.00,,,0.00,WUHU216HW,2012-10-05 15:06:00,
2012-10-05 08:11:00,50.9,41.2,30.25,SE,135,1.8,4.0,69,0.00,,,0.00,WUHU216HW,2012-10-05 15:11:00,
2012-10-05 08:16:00,51.5,41.7,30.25,NW,315,1.8,5.1,69,0.00,,,0.00,WUHU216HW,2012-10-05 15:16:00,
2012-10-05 08:21:00,51.8,42.0,30.25,NE,45,3.4,6.3,69,0.00,,,0.00,WUHU216HW,2012-10-05 15:21:00,
2012-10-05 08:26:00,52.2,42.4,30.25,North,0,1.8,6.3,69,0.00,,,0.00,WUHU216HW,2012-10-05 15:26:00,
2012-10-05 08:31:00,52.6,42.8,30.25,NNW,338,1.3,5.4,69,0.00,,,0.00,WUHU216HW,2012-10-05 15:31:00,
2012-10-05 08:36:00,52.9,43.0,30.25,ENE,68,2.9,6.9,69,0.00,,,0.00,WUHU216HW,2012-10-05 15:36:00,
2012-10-05 08:41:00,53.3,43.4,30.25,NNE,23,2.7,6.9,69,0.00,,,0.00,WUHU216HW,2012-10-05 15:41:00,
2012-10-05 08:46:00,53.8,43.9,30.25,North,0,2.9,7.6,69,0.00,,,0.00,WUHU216HW,2012-10-05 15:46:00,
2012-10-05 08:51:00,54.2,44.3,30.25,North,0,2.2,7.6,69,0.00,,,0.00,WUHU216HW,2012-10-05 15:51:00,
2012-10-05 08:56:00,54.7,44.7,30.25,North,0,4.3,7.6,69,0.00,,,0.00,WUHU216HW,2012-10-05 15:56:00,
2012-10-05 09:01:00,55.1,44.7,30.25,NE,45,2.5,6.3,68,0.00,,,0.00,WUHU216HW,2012-10-05 16:01:00,
2012-10-05 09:06:00,55.3,44.9,30.25,NW,315,0.7,6.3,68,0.00,,,0.00,WUHU216HW,2012-10-05 16:06:00,
2012-10-05 09:11:00,55.4,45.1,30.25,North,0,3.6,6.0,68,0.00,,,0.00,WUHU216HW,2012-10-05 16:11:00,
2012-10-05 09:16:00,55.6,45.3,30.25,NNE,23,1.8,8.9,68,0.00,,,0.00,WUHU216HW,2012-10-05 16:16:00,
2012-10-05 09:21:00,56.0,46.0,30.26,NNW,338,3.4,8.9,69,0.00,,,0.00,WUHU216HW,2012-10-05 16:21:00,
2012-10-05 09:26:00,56.2,46.2,30.26,WNW,293,2.0,8.9,69,0.00,,,0.00,WUHU216HW,2012-10-05 16:26:00,
2012-10-05 09:31:00,56.3,46.3,30.26,North,0,2.5,8.9,69,0.00,,,0.00,WUHU216HW,2012-10-05 16:31:00,
2012-10-05 09:36:00,56.5,46.4,30.26,NE,45,1.8,6.5,69,0.00,,,0.00,WUHU216HW,2012-10-05 16:36:00,
2012-10-05 09:41:00,56.5,46.4,30.25,ESE,113,1.3,6.5,69,0.00,,,0.00,WUHU216HW,2012-10-05 16:41:00,
2012-10-05 09:46:00,57.1,47.0,30.25,NE,45,4.5,5.1,69,0.00,,,0.00,WUHU216HW,2012-10-05 16:46:00,
2012-10-05 09:51:00,57.4,47.4,30.25,NW,315,1.8,4.7,69,0.00,,,0.00,WUHU216HW,2012-10-05 16:51:00,
2012-10-05 09:56:00,57.6,47.5,30.25,North,0,4.9,8.7,69,0.00,,,0.00,WUHU216HW,2012-10-05 16:56:00,
2012-10-05 10:01:00,57.6,47.5,30.26,SW,225,1.6,8.7,69,0.00,,,0.00,WUHU216HW,2012-10-05 17:01:00,
2012-10-05 10:06:00,57.8,47.3,30.25,WSW,248,0.7,7.2,68,0.00,,,0.00,WUHU216HW,2012-10-05 17:06:00,
2012-10-05 10:11:00,58.0,47.4,30.26,ESE,113,4.0,6.3,68,0.00,,,0.00,WUHU216HW,2012-10-05 17:11:00,
2012-10-05 10:16:00,58.1,47.3,30.26,NNE,23,2.5,5.1,67,0.00,,,0.00,WUHU216HW,2012-10-05 17:16:00,
2012-10-05 10:21:00,58.3,47.3,30.26,ENE,68,1.1,5.1,67,0.00,,,0.00,WUHU216HW,2012-10-05 17:21:00,
2012-10-05 10:26:00,58.5,47.2,30.25,WSW,248,1.8,6.9,66,0.00,,,0.00,WUHU216HW,2012-10-05 17:26:00,
2012-10-05 10:31:00,58.7,47.4,30.25,WSW,248,2.7,6.9,66,0.00,,,0.00,WUHU216HW,2012-10-05 17:31:00,
2012-10-05 10:36:00,59.2,47.0,30.25,NNE,23,5.1,5.1,64,0.00,,,0.00,WUHU216HW,2012-10-05 17:36:00,
2012-10-05 10:41:00,59.0,46.8,30.25,ENE,68,1.1,7.4,64,0.00,,,0.00,WUHU216HW,2012-10-05 17:41:00,
2012-10-05 10:46:00,59.2,47.0,30.25,NE,45,3.4,7.4,64,0.00,,,0.00,WUHU216HW,2012-10-05 17:46:00,
2012-10-05 10:51:00,59.4,47.2,30.25,NNW,338,1.8,4.0,64,0.00,,,0.00,WUHU216HW,2012-10-05 17:51:00,
2012-10-05 10:56:00,59.8,47.5,30.25,NNE,23,4.0,5.4,64,0.00,,,0.00,WUHU216HW,2012-10-05 17:56:00,
2012-10-05 11:01:00,60.1,48.3,30.25,ENE,68,2.5,5.4,65,0.00,,,0.00,WUHU216HW,2012-10-05 18:01:00,
2012-10-05 11:06:00,60.5,48.2,30.25,ESE,113,2.9,5.4,64,0.00,,,0.00,WUHU216HW,2012-10-05 18:06:00,
2012-10-05 11:11:00,60.8,48.6,30.25,NE,45,2.5,4.9,64,0.00,,,0.00,WUHU216HW,2012-10-05 18:11:00,
2012-10-05 11:16:00,61.2,48.5,30.25,SE,135,1.1,3.6,63,0.00,,,0.00,WUHU216HW,2012-10-05 18:16:00,
2012-10-05 11:21:00,61.4,48.3,30.25,SE,135,2.0,6.5,62,0.00,,,0.00,WUHU216HW,2012-10-05 18:21:00,
2012-10-05 11:26:00,61.9,48.8,30.25,South,180,2.2,6.5,62,0.00,,,0.00,WUHU216HW,2012-10-05 18:26:00,
2012-10-05 11:31:00,62.3,48.2,30.24,NE,45,5.6,5.6,60,0.00,,,0.00,WUHU216HW,2012-10-05 18:31:00,
2012-10-05 11:36:00,62.5,48.4,30.24,NE,45,4.5,8.5,60,0.00,,,0.00,WUHU216HW,2012-10-05 18:36:00,
2012-10-05 11:41:00,62.8,48.8,30.24,NE,45,1.6,8.5,60,0.00,,,0.00,WUHU216HW,2012-10-05 18:41:00,
2012-10-05 11:46:00,63.4,48.8,30.24,SSW,203,1.1,4.5,59,0.00,,,0.00,WUHU216HW,2012-10-05 18:46:00,
2012-10-05 11:51:00,63.4,47.8,30.24,NNE,23,4.0,5.8,57,0.00,,,0.00,WUHU216HW,2012-10-05 18:51:00,
2012-10-05 11:56:00,63.2,48.2,30.24,East,90,1.1,5.8,58,0.00,,,0.00,WUHU216HW,2012-10-05 18:56:00,
2012-10-05 12:01:00,63.5,47.0,30.24,NNW,338,2.5,4.3,55,0.00,,,0.00,WUHU216HW,2012-10-05 19:01:00,
2012-10-05 12:06:00,63.7,48.2,30.24,ESE,113,4.7,4.7,57,0.00,,,0.00,WUHU216HW,2012-10-05 19:06:00,
2012-10-05 12:11:00,63.9,47.4,30.24,SW,225,3.4,4.7,55,0.00,,,0.00,WUHU216HW,2012-10-05 19:11:00,
2012-10-05 12:16:00,64.1,46.0,30.24,NNE,23,3.6,6.9,52,0.00,,,0.00,WUHU216HW,2012-10-05 19:16:00,
2012-10-05 12:21:00,63.7,46.2,30.24,NNE,23,2.5,6.9,53,0.00,,,0.00,WUHU216HW,2012-10-05 19:21:00,
2012-10-05 12:26:00,63.9,46.8,30.24,SE,135,4.0,6.9,54,0.00,,,0.00,WUHU216HW,2012-10-05 19:26:00,
2012-10-05 12:31:00,64.3,47.2,30.23,South,180,2.2,5.4,54,0.00,,,0.00,WUHU216HW,2012-10-05 19:31:00,
2012-10-05 12:36:00,64.6,46.5,30.23,North,0,3.4,6.3,52,0.00,,,0.00,WUHU216HW,2012-10-05 19:36:00,
2012-10-05 12:41:00,64.8,47.2,30.23,WSW,248,2.0,6.3,53,0.00,,,0.00,WUHU216HW,2012-10-05 19:41:00,
2012-10-05 12:46:00,64.8,46.7,30.23,WNW,293,3.4,6.3,52,0.00,,,0.00,WUHU216HW,2012-10-05 19:46:00,
2012-10-05 12:51:00,64.8,46.2,30.23,WNW,293,4.0,6.3,51,0.00,,,0.00,WUHU216HW,2012-10-05 19:51:00,
2012-10-05 12:56:00,65.0,46.4,30.23,North,0,6.3,6.3,51,0.00,,,0.00,WUHU216HW,2012-10-05 19:56:00,
2012-10-05 13:01:00,65.2,47.1,30.23,SSE,158,2.2,6.3,52,0.00,,,0.00,WUHU216HW,2012-10-05 20:01:00,
2012-10-05 13:06:00,65.3,47.3,30.23,North,0,3.6,6.3,52,0.00,,,0.00,WUHU216HW,2012-10-05 20:06:00,
2012-10-05 13:11:00,65.3,45.7,30.23,NNW,338,6.9,6.9,49,0.00,,,0.00,WUHU216HW,2012-10-05 20:11:00,
2012-10-05 13:16:00,65.5,46.9,30.23,NNW,338,2.9,6.9,51,0.00,,,0.00,WUHU216HW,2012-10-05 20:16:00,
2012-10-05 13:21:00,65.5,45.8,30.23,NE,45,1.8,6.3,49,0.00,,,0.00,WUHU216HW,2012-10-05 20:21:00,
2012-10-05 13:26:00,65.2,45.6,30.22,NW,315,2.2,6.0,49,0.00,,,0.00,WUHU216HW,2012-10-05 20:26:00,
2012-10-05 13:31:00,65.2,45.6,30.22,NE,45,1.1,6.0,49,0.00,,,0.00,WUHU216HW,2012-10-05 20:31:00,
2012-10-05 13:36:00,65.2,46.1,30.22,ENE,68,1.8,3.8,50,0.00,,,0.00,WUHU216HW,2012-10-05 20:36:00,
2012-10-05 13:41:00,65.3,46.3,30.22,SSE,158,2.2,3.8,50,0.00,,,0.00,WUHU216HW,2012-10-05 20:41:00,
2012-10-05 13:46:00,65.3,45.7,30.21,North,0,7.8,7.8,49,0.00,,,0.00,WUHU216HW,2012-10-05 20:46:00,
2012-10-05 13:51:00,65.7,46.0,30.21,SSW,203,2.2,7.8,49,0.00,,,0.00,WUHU216HW,2012-10-05 20:51:00,
2012-10-05 13:56:00,65.5,46.4,30.21,NW,315,1.8,7.8,50,0.00,,,0.00,WUHU216HW,2012-10-05 20:56:00,
2012-10-05 14:01:00,65.7,46.6,30.21,NE,45,1.6,4.3,50,0.00,,,0.00,WUHU216HW,2012-10-05 21:01:00,
2012-10-05 14:06:00,65.9,46.8,30.21,SE,135,1.6,4.3,50,0.00,,,0.00,WUHU216HW,2012-10-05 21:06:00,
2012-10-05 14:11:00,65.7,45.5,30.20,NNW,338,2.5,5.1,48,0.00,,,0.00,WUHU216HW,2012-10-05 21:11:00,
2012-10-05 14:16:00,65.5,46.4,30.20,SE,135,1.1,5.1,50,0.00,,,0.00,WUHU216HW,2012-10-05 21:16:00,
2012-10-05 14:21:00,65.3,46.3,30.20,ESE,113,3.1,4.0,50,0.00,,,0.00,WUHU216HW,2012-10-05 21:21:00,
2012-10-05 14:26:00,65.5,46.4,30.20,ENE,68,1.1,3.1,50,0.00,,,0.00,WUHU216HW,2012-10-05 21:26:00,
2012-10-05 14:31:00,65.5,45.8,30.20,North,0,3.4,3.4,49,0.00,,,0.00,WUHU216HW,2012-10-05 21:31:00,
2012-10-05 14:36:00,65.3,45.1,30.20,WSW,248,1.3,4.3,48,0.00,,,0.00,WUHU216HW,2012-10-05 21:36:00,
2012-10-05 14:41:00,65.3,44.5,30.20,North,0,3.6,4.3,47,0.00,,,0.00,WUHU216HW,2012-10-05 21:41:00,
2012-10-05 14:46:00,65.2,43.7,30.20,South,180,1.3,4.7,46,0.00,,,0.00,WUHU216HW,2012-10-05 21:46:00,
2012-10-05 14:51:00,65.0,44.2,30.20,WNW,293,3.1,6.9,47,0.00,,,0.00,WUHU216HW,2012-10-05 21:51:00,
2012-10-05 14:56:00,65.0,44.7,30.19,North,0,1.8,6.9,48,0.00,,,0.00,WUHU216HW,2012-10-05 21:56:00,
2012-10-05 15:01:00,64.8,44.0,30.20,NW,315,6.3,8.3,47,0.00,,,0.00,WUHU216HW,2012-10-05 22:01:00,
2012-10-05 15:06:00,64.4,44.2,30.20,North,0,2.5,8.3,48,0.00,,,0.00,WUHU216HW,2012-10-05 22:06:00,
2012-10-05 15:11:00,64.1,44.5,30.20,SSW,203,1.3,6.3,49,0.00,,,0.00,WUHU216HW,2012-10-05 22:11:00,
2012-10-05 15:16:00,64.1,44.5,30.19,NNW,338,3.4,8.1,49,0.00,,,0.00,WUHU216HW,2012-10-05 22:16:00,
2012-10-05 15:21:00,63.9,44.9,30.19,WSW,248,5.4,8.1,50,0.00,,,0.00,WUHU216HW,2012-10-05 22:21:00,
2012-10-05 15:26:00,63.7,44.7,30.19,SSW,203,1.6,7.6,50,0.00,,,0.00,WUHU216HW,2012-10-05 22:26:00,
2012-10-05 15:31:00,63.4,44.4,30.19,West,270,4.3,6.3,50,0.00,,,0.00,WUHU216HW,2012-10-05 22:31:00,
2012-10-05 15:36:00,63.0,44.6,30.19,NW,315,4.7,6.3,51,0.00,,,0.00,WUHU216HW,2012-10-05 22:36:00,
2012-10-05 15:41:00,63.0,44.6,30.19,North,0,2.5,6.3,51,0.00,,,0.00,WUHU216HW,2012-10-05 22:41:00,
2012-10-05 15:46:00,62.8,44.4,30.19,NW,315,2.0,6.3,51,0.00,,,0.00,WUHU216HW,2012-10-05 22:46:00,
2012-10-05 15:51:00,62.8,44.4,30.19,North,0,2.2,5.1,51,0.00,,,0.00,WUHU216HW,2012-10-05 22:51:00,
2012-10-05 15:56:00,62.6,44.2,30.19,West,270,2.9,5.1,51,0.00,,,0.00,WUHU216HW,2012-10-05 22:56:00,
2012-10-05 16:01:00,62.5,44.1,30.19,NW,315,1.8,5.1,51,0.00,,,0.00,WUHU216HW,2012-10-05 23:01:00,
2012-10-05 16:06:00,62.3,43.9,30.19,East,90,4.5,6.3,51,0.00,,,0.00,WUHU216HW,2012-10-05 23:06:00,
2012-10-05 16:11:00,62.1,43.7,30.19,North,0,1.6,6.3,51,0.00,,,0.00,WUHU216HW,2012-10-05 23:11:00,
2012-10-05 16:16:00,61.9,44.1,30.19,WSW,248,1.1,6.3,52,0.00,,,0.00,WUHU216HW,2012-10-05 23:16:00,
2012-10-05 16:21:00,61.7,43.9,30.18,ESE,113,2.7,6.7,52,0.00,,,0.00,WUHU216HW,2012-10-05 23:21:00,
2012-10-05 16:26:00,61.7,44.4,30.19,SE,135,2.0,6.7,53,0.00,,,0.00,WUHU216HW,2012-10-05 23:26:00,
2012-10-05 16:31:00,61.7,44.4,30.18,NNW,338,1.8,4.0,53,0.00,,,0.00,WUHU216HW,2012-10-05 23:31:00,
2012-10-05 16:36:00,61.6,44.2,30.18,WSW,248,3.4,4.3,53,0.00,,,0.00,WUHU216HW,2012-10-05 23:36:00,
2012-10-05 16:41:00,61.6,44.2,30.18,SE,135,1.6,4.3,53,0.00,,,0.00,WUHU216HW,2012-10-05 23:41:00,
2012-10-05 16:46:00,61.6,44.2,30.18,NE,45,3.6,4.3,53,0.00,,,0.00,WUHU216HW,2012-10-05 23:46:00,
2012-10-05 16:51:00,61.6,43.7,30.18,NNE,23,4.0,4.5,52,0.00,,,0.00,WUHU216HW,2012-10-05 23:51:00,
2012-10-05 16:56:00,61.6,43.7,30.18,NNE,23,3.4,4.9,52,0.00,,,0.00,WUHU216HW,2012-10-05 23:56:00,
2012-10-05 17:01:00,61.6,43.7,30.18,SSE,158,1.3,4.9,52,0.00,,,0.00,WUHU216HW,2012-10-06 00:01:00,
2012-10-05 17:06:00,61.4,43.6,30.18,NW,315,2.9,4.0,52,0.00,,,0.00,WUHU216HW,2012-10-06 00:06:00,
2012-10-05 17:11:00,61.4,43.1,30.18,NNE,23,5.6,6.9,51,0.00,,,0.00,WUHU216HW,2012-10-06 00:11:00,
2012-10-05 17:16:00,61.2,42.9,30.18,North,0,8.7,8.7,51,0.00,,,0.00,WUHU216HW,2012-10-06 00:16:00,
2012-10-05 17:21:00,61.0,42.8,30.18,West,270,6.3,8.7,51,0.00,,,0.00,WUHU216HW,2012-10-06 00:21:00,
2012-10-05 17:26:00,60.8,43.1,30.18,NNW,338,4.0,8.7,52,0.00,,,0.00,WUHU216HW,2012-10-06 00:26:00,
2012-10-05 17:31:00,60.7,42.9,30.18,West,270,2.5,6.3,52,0.00,,,0.00,WUHU216HW,2012-10-06 00:31:00,
2012-10-05 17:36:00,60.5,43.2,30.18,WSW,248,4.3,4.9,53,0.00,,,0.00,WUHU216HW,2012-10-06 00:36:00,
2012-10-05 17:41:00,60.1,42.9,30.18,NNE,23,4.7,5.4,53,0.00,,,0.00,WUHU216HW,2012-10-06 00:41:00,
2012-10-05 17:46:00,59.9,42.3,30.18,WNW,293,3.8,5.4,52,0.00,,,0.00,WUHU216HW,2012-10-06 00:46:00,
2012-10-05 17:51:00,59.8,42.6,30.18,ENE,68,0.9,5.4,53,0.00,,,0.00,WUHU216HW,2012-10-06 00:51:00,
2012-10-05 17:56:00,59.8,42.6,30.18,NW,315,4.5,4.7,53,0.00,,,0.00,WUHU216HW,2012-10-06 00:56:00,
2012-10-05 18:01:00,59.4,42.2,30.19,South,180,1.8,4.5,53,0.00,,,0.00,WUHU216HW,2012-10-06 01:01:00,
2012-10-05 18:06:00,59.2,42.0,30.19,NW,315,2.5,4.5,53,0.00,,,0.00,WUHU216HW,2012-10-06 01:06:00,
2012-10-05 18:11:00,59.0,42.0,30.19,NNE,23,1.1,2.9,53,0.00,,,0.00,WUHU216HW,2012-10-06 01:11:00,
2012-10-05 18:16:00,58.9,41.8,30.19,NNW,338,0.4,2.9,53,0.00,,,0.00,WUHU216HW,2012-10-06 01:16:00,
2012-10-05 18:21:00,58.7,41.1,30.19,NW,315,1.1,4.0,52,0.00,,,0.00,WUHU216HW,2012-10-06 01:21:00,
2012-10-05 18:26:00,58.7,41.1,30.19,WNW,293,0.7,4.0,52,0.00,,,0.00,WUHU216HW,2012-10-06 01:26:00,
2012-10-05 18:31:00,58.5,41.0,30.19,WSW,248,0.7,2.5,52,0.00,,,0.00,WUHU216HW,2012-10-06 01:31:00,
2012-10-05 18:36:00,58.3,39.9,30.18,NNE,23,2.5,4.5,50,0.00,,,0.00,WUHU216HW,2012-10-06 01:36:00,
2012-10-05 18:41:00,58.3,40.3,30.18,WNW,293,0.0,4.5,51,0.00,,,0.00,WUHU216HW,2012-10-06 01:41:00,
2012-10-05 18:46:00,58.1,40.1,30.19,North,0,0.2,2.5,51,0.00,,,0.00,WUHU216HW,2012-10-06 01:46:00,
2012-10-05 18:51:00,58.0,40.0,30.18,NW,315,2.5,2.7,51,0.00,,,0.00,WUHU216HW,2012-10-06 01:51:00,
2012-10-05 18:56:00,57.8,39.9,30.18,North,0,0.9,2.7,51,0.00,,,0.00,WUHU216HW,2012-10-06 01:56:00,
2012-10-05 19:01:00,57.6,39.7,30.18,NNE,23,2.5,2.7,51,0.00,,,0.00,WUHU216HW,2012-10-06 02:01:00,
2012-10-05 19:06:00,57.4,39.5,30.19,ENE,68,0.2,3.4,51,0.00,,,0.00,WUHU216HW,2012-10-06 02:06:00,
2012-10-05 19:11:00,57.2,39.3,30.18,NNE,23,0.4,3.4,51,0.00,,,0.00,WUHU216HW,2012-10-06 02:11:00,
2012-10-05 19:16:00,57.2,39.3,30.19,ENE,68,0.9,2.9,51,0.00,,,0.00,WUHU216HW,2012-10-06 02:16:00,
2012-10-05 19:21:00,57.1,39.2,30.19,NNW,338,1.6,2.9,51,0.00,,,0.00,WUHU216HW,2012-10-06 02:21:00,
2012-10-05 19:26:00,56.9,39.0,30.19,NNE,23,2.0,2.9,51,0.00,,,0.00,WUHU216HW,2012-10-06 02:26:00,
2012-10-05 19:31:00,56.9,38.5,30.19,ENE,68,2.9,4.7,50,0.00,,,0.00,WUHU216HW,2012-10-06 02:31:00,
2012-10-05 19:36:00,56.7,38.3,30.19,ENE,68,2.9,6.5,50,0.00,,,0.00,WUHU216HW,2012-10-06 02:36:00,
2012-10-05 19:41:00,56.7,38.3,30.19,NE,45,0.4,6.5,50,0.00,,,0.00,WUHU216HW,2012-10-06 02:41:00,
2012-10-05 19:46:00,56.7,38.8,30.19,ENE,68,0.4,4.0,51,0.00,,,0.00,WUHU216HW,2012-10-06 02:46:00,
2012-10-05 19:51:00,56.5,38.6,30.19,NW,315,1.8,4.0,51,0.00,,,0.00,WUHU216HW,2012-10-06 02:51:00,
2012-10-05 19:56:00,56.5,39.1,30.19,NW,315,0.7,4.0,52,0.00,,,0.00,WUHU216HW,2012-10-06 02:56:00,
2012-10-05 20:01:00,56.3,38.9,30.19,ENE,68,1.8,4.5,52,0.00,,,0.00,WUHU216HW,2012-10-06 03:01:00,
2012-10-05 20:06:00,56.2,38.7,30.19,North,0,4.3,4.5,52,0.00,,,0.00,WUHU216HW,2012-10-06 03:06:00,
2012-10-05 20:11:00,56.2,39.3,30.20,West,270,1.6,4.3,53,0.00,,,0.00,WUHU216HW,2012-10-06 03:11:00,
2012-10-05 20:16:00,55.8,38.9,30.20,NW,315,2.5,4.3,53,0.00,,,0.00,WUHU216HW,2012-10-06 03:16:00,
2012-10-05 20:21:00,55.8,38.9,30.19,NNW,338,1.3,3.4,53,0.00,,,0.00,WUHU216HW,2012-10-06 03:21:00,
2012-10-05 20:26:00,55.8,38.9,30.19,WSW,248,1.8,4.0,53,0.00,,,0.00,WUHU216HW,2012-10-06 03:26:00,
2012-10-05 20:31:00,55.8,38.9,30.19,NNE,23,0.4,4.0,53,0.00,,,0.00,WUHU216HW,2012-10-06 03:31:00,
2012-10-05 20:36:00,55.8,38.9,30.20,ENE,68,2.5,3.1,53,0.00,,,0.00,WUHU216HW,2012-10-06 03:36:00,
2012-10-05 20:41:00,55.6,38.7,30.19,ESE,113,1.6,4.0,53,0.00,,,0.00,WUHU216HW,2012-10-06 03:41:00,
2012-10-05 20:46:00,55.6,38.7,30.20,NE,45,4.0,4.0,53,0.00,,,0.00,WUHU216HW,2012-10-06 03:46:00,
2012-10-05 20:51:00,55.4,38.5,30.20,ESE,113,0.7,4.0,53,0.00,,,0.00,WUHU216HW,2012-10-06 03:51:00,
2012-10-05 20:56:00,55.4,38.0,30.20,ENE,68,3.8,4.0,52,0.00,,,0.00,WUHU216HW,2012-10-06 03:56:00,
2012-10-05 21:00:00,55.4,38.0,30.20,NNE,23,1.6,3.8,52,0.00,,,0.00,WUHU216HW,2012-10-06 04:00:00,
2012-10-05 21:05:00,55.4,38.0,30.20,NNW,338,1.1,5.4,52,0.00,,,0.00,WUHU216HW,2012-10-06 04:05:00,
2012-10-05 21:10:00,55.3,37.9,30.20,WNW,293,0.7,5.4,52,0.00,,,0.00,WUHU216HW,2012-10-06 04:10:00,
2012-10-05 21:15:00,55.3,38.4,30.20,West,270,0.9,3.4,53,0.00,,,0.00,WUHU216HW,2012-10-06 04:15:00,
2012-10-05 21:20:00,55.1,38.2,30.20,NNW,338,3.1,4.0,53,0.00,,,0.00,WUHU216HW,2012-10-06 04:20:00,
2012-10-05 21:25:00,55.3,38.8,30.20,WNW,293,1.8,4.3,54,0.00,,,0.00,WUHU216HW,2012-10-06 04:25:00,
2012-10-05 21:30:00,55.3,38.8,30.20,NNE,23,1.1,4.3,54,0.00,,,0.00,WUHU216HW,2012-10-06 04:30:00,
2012-10-05 21:35:00,55.1,38.6,30.19,NNW,338,2.0,4.5,54,0.00,,,0.00,WUHU216HW,2012-10-06 04:35:00,
2012-10-05 21:40:00,55.1,39.1,30.20,West,270,1.6,5.8,55,0.00,,,0.00,WUHU216HW,2012-10-06 04:40:00,
2012-10-05 21:45:00,55.1,39.1,30.20,WNW,293,1.6,5.8,55,0.00,,,0.00,WUHU216HW,2012-10-06 04:45:00,
2012-10-05 21:50:00,55.1,39.1,30.20,NW,315,3.6,5.8,55,0.00,,,0.00,WUHU216HW,2012-10-06 04:50:00,
2012-10-05 21:55:00,54.9,39.0,30.19,NNW,338,1.8,3.6,55,0.00,,,0.00,WUHU216HW,2012-10-06 04:55:00,
2012-10-05 22:00:00,54.7,38.8,30.20,West,270,0.7,4.0,55,0.00,,,0.00,WUHU216HW,2012-10-06 05:00:00,
2012-10-05 22:05:00,54.7,38.8,30.20,NW,315,2.2,4.7,55,0.00,,,0.00,WUHU216HW,2012-10-06 05:05:00,
2012-10-05 22:10:00,54.9,39.0,30.20,NNE,23,2.2,4.7,55,0.00,,,0.00,WUHU216HW,2012-10-06 05:10:00,
2012-10-05 22:15:00,55.1,39.1,30.20,ENE,68,1.6,4.7,55,0.00,,,0.00,WUHU216HW,2012-10-06 05:15:00,
2012-10-05 22:20:00,55.1,39.1,30.20,NE,45,2.0,4.3,55,0.00,,,0.00,WUHU216HW,2012-10-06 05:20:00,
2012-10-05 22:25:00,54.9,39.0,30.20,NW,315,1.1,4.0,55,0.00,,,0.00,WUHU216HW,2012-10-06 05:25:00,
2012-10-05 22:30:00,54.9,39.0,30.20,West,270,1.6,4.0,55,0.00,,,0.00,WUHU216HW,2012-10-06 05:30:00,
2012-10-05 22:35:00,54.7,38.8,30.20,NE,45,2.5,4.5,55,0.00,,,0.00,WUHU216HW,2012-10-06 05:35:00,
2012-10-05 22:40:00,54.7,38.8,30.20,North,0,1.8,4.7,55,0.00,,,0.00,WUHU216HW,2012-10-06 05:40:00,
2012-10-05 22:45:00,54.7,38.8,30.20,SE,135,1.1,4.7,55,0.00,,,0.00,WUHU216HW,2012-10-06 05:45:00,
2012-10-05 22:50:00,54.7,38.8,30.20,WSW,248,1.1,4.0,55,0.00,,,0.00,WUHU216HW,2012-10-06 05:50:00,
2012-10-05 22:55:00,54.7,38.8,30.19,North,0,3.1,5.4,55,0.00,,,0.00,WUHU216HW,2012-10-06 05:55:00,
2012-10-05 23:00:00,54.7,38.8,30.19,North,0,3.1,5.4,55,0.00,,,0.00,WUHU216HW,2012-10-06 06:00:00,
2012-10-05 23:05:00,54.7,38.8,30.19,NNW,338,0.7,3.8,55,0.00,,,0.00,WUHU216HW,2012-10-06 06:05:00,
2012-10-05 23:10:00,54.5,38.6,30.19,North,0,2.7,3.1,55,0.00,,,0.00,WUHU216HW,2012-10-06 06:10:00,
2012-10-05 23:15:00,54.5,39.1,30.19,WNW,293,5.4,6.3,56,0.00,,,0.00,WUHU216HW,2012-10-06 06:15:00,
2012-10-05 23:20:00,54.5,39.1,30.19,NNW,338,2.7,6.3,56,0.00,,,0.00,WUHU216HW,2012-10-06 06:20:00,
2012-10-05 23:25:00,54.4,39.4,30.20,NW,315,3.8,5.6,57,0.00,,,0.00,WUHU216HW,2012-10-06 06:25:00,
2012-10-05 23:30:00,54.4,39.4,30.20,NNW,338,3.4,5.1,57,0.00,,,0.00,WUHU216HW,2012-10-06 06:30:00,
2012-10-05 23:35:00,54.4,39.9,30.20,WNW,293,1.1,4.5,58,0.00,,,0.00,WUHU216HW,2012-10-06 06:35:00,
2012-10-05 23:40:00,54.2,39.7,30.20,North,0,1.1,4.0,58,0.00,,,0.00,WUHU216HW,2012-10-06 06:40:00,
2012-10-05 23:45:00,54.0,39.5,30.20,North,0,0.7,3.8,58,0.00,,,0.00,WUHU216HW,2012-10-06 06:45:00,
2012-10-05 23:50:00,53.8,39.3,30.20,ESE,113,0.4,3.4,58,0.00,,,0.00,WUHU216HW,2012-10-06 06:50:00,
2012-10-05 23:55:00,53.6,39.3,30.20,NW,315,1.1,3.6,58,0.00,,,0.00,WUHU216HW,2012-10-06 06:55:00,